User: anonymous   Login
Location: *
(35.2348°S, 91.3916°E)
Time: 10:40:21
(UTC+00:00)
Language:

Meteor 1-4 Rocket - Orbit

View from above orbital plane
View from above orbital plane
View from above satellite
View from above satellite

Ground track
Ground track

The orbit data is extracted from the following two-line orbital elements,

1  4394U 70037B   19339.84793125 +.00000623 +00000-0 +20193-4 0  9991
2  4394 081.2431 034.7583 0037845 281.4512 078.2474 15.29669197703019
Epoch (UTC): 05 December 2019 20:21:01
Eccentricity: 0.0037845
inclination: 81.2431°
perigee height: 451 km
apogee height: 503 km
right ascension of ascending node: 34.7583°
argument of perigee: 281.4512°
revolutions per day: 15.29669197
mean anomaly at epoch: 78.2474°
orbit number at epoch: 70301

The dashed part of the orbit path shows where the satellite is in the earth's shadow,  

DLR